When you browse on this site, cookies collect data to enhance your experience and personalize the content and advertising you see.
Visit our Privacy Policy to learn more. By continuing to use the site, you agree to this use of cookies and data.
  • In United Kingdom
  • List of Countries
  • For 7 days
  • Water Temperature
  • Satellite Maps
  • Weather Map
  • Weather Widgets
  • user-avatar
    Login

    Hourly Weather Pinsk

    Today, 27 May, Monday

    Time Temperature Precipitation Wind Pressure Humidity
    00:00 +13°C° 0 mm 1 mps 747 mmHg 90%
    01:00 +13°C° 0 mm 2 mps 747 mmHg 91%
    02:00 +12°C° 0 mm 2 mps 747 mmHg 92%
    03:00 +13°C° 0 mm 2 mps 747 mmHg 92%
    04:00 +13°C° 0 mm 2 mps 747 mmHg 93%
    05:00 +13°C° 0 mm 2 mps 747 mmHg 93%
    06:00 +14°C° 0 mm 3 mps 747 mmHg 88%
    07:00 +17°C° 0 mm 3 mps 747 mmHg 83%
    08:00 +18°C° 0 mm 3 mps 747 mmHg 79%
    09:00 +20°C° 0 mm 4 mps 747 mmHg 73%
    10:00 +21°C° 0 mm 4 mps 747 mmHg 68%
    11:00 +23°C° 0 mm 5 mps 747 mmHg 62%
    12:00 +23°C° 0.3 mm 5 mps 747 mmHg 62%
    13:00 +25°C° 0.3 mm 5 mps 746 mmHg 61%
    14:00 +25°C° 0.3 mm 5 mps 746 mmHg 61%
    15:00 +25°C° 0.3 mm 5 mps 746 mmHg 63%
    16:00 +25°C° 0.3 mm 4 mps 746 mmHg 66%
    17:00 +25°C° 0.3 mm 4 mps 746 mmHg 68%
    18:00 +22°C° 0.1 mm 3 mps 746 mmHg 73%
    19:00 +21°C° 0.1 mm 3 mps 746 mmHg 78%
    20:00 +20°C° 0.1 mm 2 mps 746 mmHg 83%
    21:00 +19°C° 0 mm 2 mps 746 mmHg 85%
    22:00 +18°C° 0 mm 2 mps 746 mmHg 87%
    23:00 +18°C° 0 mm 2 mps 746 mmHg 89%

    Tomorrow, 28 May, Tuesday

    Time Temperature Precipitation Wind Pressure Humidity
    00:00 +17°C° 0.3 mm 2 mps 746 mmHg 90%
    01:00 +17°C° 0.3 mm 2 mps 745 mmHg 92%
    02:00 +17°C° 0.3 mm 2 mps 745 mmHg 93%
    03:00 +17°C° 0 mm 2 mps 745 mmHg 93%
    04:00 +17°C° 0 mm 3 mps 744 mmHg 93%
    05:00 +17°C° 0 mm 3 mps 744 mmHg 93%
    06:00 +18°C° 0.1 mm 4 mps 744 mmHg 91%
    07:00 +19°C° 0.1 mm 4 mps 744 mmHg 90%
    08:00 +19°C° 0.1 mm 5 mps 743 mmHg 88%
    09:00 +20°C° 0.1 mm 5 mps 743 mmHg 85%
    10:00 +21°C° 0.1 mm 5 mps 743 mmHg 82%
    11:00 +22°C° 0.1 mm 5 mps 744 mmHg 79%
    12:00 +23°C° 0.9 mm 5 mps 743 mmHg 78%
    13:00 +23°C° 0.9 mm 6 mps 743 mmHg 76%
    14:00 +24°C° 0.9 mm 6 mps 743 mmHg 75%
    15:00 +23°C° 1.8 mm 6 mps 743 mmHg 78%
    16:00 +23°C° 1.8 mm 5 mps 743 mmHg 82%
    17:00 +22°C° 1.8 mm 5 mps 743 mmHg 85%
    18:00 +21°C° 0.7 mm 4 mps 743 mmHg 87%
    19:00 +20°C° 0.7 mm 3 mps 743 mmHg 88%
    20:00 +19°C° 0.7 mm 3 mps 742 mmHg 90%
    21:00 +19°C° 0.4 mm 3 mps 742 mmHg 90%
    22:00 +19°C° 0.4 mm 3 mps 742 mmHg 91%
    23:00 +18°C° 0.4 mm 4 mps 742 mmHg 91%

    Day after tomorrow, 29 May, Wednesday

    Time Temperature Precipitation Wind Pressure Humidity
    00:00 +18°C° 0.4 mm 4 mps 742 mmHg 92%
    01:00 +18°C° 0.4 mm 4 mps 742 mmHg 93%
    02:00 +18°C° 0.4 mm 4 mps 742 mmHg 94%
    03:00 +17°C° 0.1 mm 4 mps 742 mmHg 94%
    04:00 +17°C° 0.1 mm 4 mps 742 mmHg 95%
    05:00 +16°C° 0.1 mm 3 mps 742 mmHg 96%
    06:00 +17°C° 0.2 mm 3 mps 743 mmHg 94%
    07:00 +18°C° 0.2 mm 3 mps 743 mmHg 92%
    08:00 +19°C° 0.2 mm 3 mps 743 mmHg 90%
    09:00 +20°C° 0.8 mm 3 mps 744 mmHg 85%
    10:00 +22°C° 0.8 mm 3 mps 744 mmHg 79%
    11:00 +24°C° 0.8 mm 3 mps 744 mmHg 74%
    12:00 +22°C° 1 mm 3 mps 745 mmHg 77%
    13:00 +22°C° 1 mm 3 mps 745 mmHg 79%
    14:00 +21°C° 1 mm 3 mps 746 mmHg 82%
    15:00 +21°C° 1 mm 3 mps 746 mmHg 84%
    16:00 +20°C° 1 mm 3 mps 746 mmHg 86%
    17:00 +20°C° 1 mm 3 mps 746 mmHg 88%
    18:00 +19°C° 0.3 mm 4 mps 747 mmHg 90%
    19:00 +18°C° 0.3 mm 4 mps 747 mmHg 92%
    20:00 +17°C° 0.3 mm 4 mps 747 mmHg 94%
    21:00 +15°C° 0 mm 4 mps 748 mmHg 94%
    22:00 +14°C° 0 mm 4 mps 748 mmHg 94%
    23:00 +14°C° 0 mm 4 mps 748 mmHg 94%

    30 May, Thursday

    Time Temperature Precipitation Wind Pressure Humidity
    00:00 +14°C° 0 mm 4 mps 749 mmHg 94%
    01:00 +13°C° 0 mm 3 mps 749 mmHg 94%
    02:00 +13°C° 0 mm 3 mps 749 mmHg 94%
    03:00 +13°C° 0 mm 3 mps 749 mmHg 94%
    04:00 +13°C° 0 mm 3 mps 749 mmHg 94%
    05:00 +13°C° 0 mm 3 mps 749 mmHg 94%
    06:00 +13°C° 0 mm 3 mps 750 mmHg 93%
    07:00 +13°C° 0 mm 3 mps 750 mmHg 92%
    08:00 +14°C° 0 mm 3 mps 750 mmHg 91%
    09:00 +16°C° 0 mm 3 mps 750 mmHg 87%
    10:00 +17°C° 0 mm 3 mps 750 mmHg 84%
    11:00 +18°C° 0 mm 3 mps 750 mmHg 81%
    12:00 +18°C° 0 mm 2 mps 750 mmHg 79%
    13:00 +19°C° 0 mm 2 mps 751 mmHg 78%
    14:00 +19°C° 0 mm 2 mps 751 mmHg 76%
    15:00 +20°C° 0 mm 2 mps 751 mmHg 76%
    16:00 +20°C° 0 mm 2 mps 751 mmHg 75%
    17:00 +20°C° 0 mm 2 mps 751 mmHg 74%
    18:00 +19°C° 0 mm 2 mps 751 mmHg 78%
    19:00 +18°C° 0 mm 2 mps 751 mmHg 82%
    20:00 +18°C° 0 mm 1 mps 751 mmHg 86%
    21:00 +16°C° 0 mm 1 mps 751 mmHg 88%
    22:00 +16°C° 0 mm 1 mps 751 mmHg 90%
    23:00 +15°C° 0 mm 1 mps 751 mmHg 91%

    31 May, Friday

    Time Temperature Precipitation Wind Pressure Humidity
    00:00 +14°C° 0 mm 1 mps 751 mmHg 92%
    01:00 +14°C° 0 mm 1 mps 751 mmHg 93%
    02:00 +13°C° 0 mm 2 mps 751 mmHg 94%
    03:00 +13°C° 0 mm 2 mps 751 mmHg 94%
    04:00 +13°C° 0 mm 2 mps 751 mmHg 94%
    05:00 +13°C° 0 mm 2 mps 751 mmHg 94%
    06:00 +15°C° 0 mm 2 mps 751 mmHg 90%
    07:00 +16°C° 0 mm 2 mps 750 mmHg 86%
    08:00 +18°C° 0 mm 2 mps 750 mmHg 82%
    09:00 +19°C° 0 mm 2 mps 750 mmHg 80%
    10:00 +20°C° 0 mm 2 mps 750 mmHg 78%
    11:00 +22°C° 0 mm 1 mps 750 mmHg 76%
    12:00 +22°C° 0 mm 1 mps 749 mmHg 74%
    13:00 +23°C° 0 mm 1 mps 749 mmHg 73%
    14:00 +23°C° 0 mm 1 mps 749 mmHg 72%
    15:00 +23°C° 0 mm 1 mps 748 mmHg 74%
    16:00 +23°C° 0 mm 1 mps 748 mmHg 75%
    17:00 +24°C° 0 mm 1 mps 748 mmHg 77%
    18:00 +23°C° 0 mm 1 mps 748 mmHg 81%
    19:00 +22°C° 0 mm 1 mps 748 mmHg 85%
    20:00 +20°C° 0 mm 2 mps 748 mmHg 89%
    21:00 +19°C° 0.2 mm 2 mps 747 mmHg 91%
    22:00 +18°C° 0.2 mm 2 mps 747 mmHg 93%
    23:00 +17°C° 0.2 mm 2 mps 747 mmHg 94%

    1 June, Saturday

    Time Temperature Precipitation Wind Pressure Humidity
    00:00 +17°C° 0.3 mm 2 mps 747 mmHg 95%
    01:00 +17°C° 0.3 mm 2 mps 747 mmHg 95%
    02:00 +16°C° 0.3 mm 2 mps 747 mmHg 96%
    03:00 +16°C° 0 mm 2 mps 747 mmHg 96%
    04:00 +16°C° 0 mm 2 mps 747 mmHg 96%
    05:00 +16°C° 0 mm 2 mps 747 mmHg 96%
    06:00 +17°C° 0 mm 2 mps 747 mmHg 93%
    07:00 +19°C° 0 mm 3 mps 747 mmHg 90%
    08:00 +20°C° 0 mm 3 mps 747 mmHg 88%
    09:00 +21°C° 0.6 mm 3 mps 747 mmHg 84%
    10:00 +24°C° 0.6 mm 3 mps 747 mmHg 80%
    11:00 +25°C° 0.6 mm 3 mps 747 mmHg 76%
    12:00 +25°C° 0.7 mm 4 mps 747 mmHg 75%
    13:00 +25°C° 0.7 mm 4 mps 747 mmHg 75%
    14:00 +25°C° 0.7 mm 4 mps 747 mmHg 74%
    15:00 +25°C° 0.3 mm 4 mps 747 mmHg 76%
    16:00 +25°C° 0.3 mm 5 mps 748 mmHg 77%
    17:00 +25°C° 0.3 mm 5 mps 748 mmHg 78%
    18:00 +23°C° 0.7 mm 5 mps 748 mmHg 81%
    19:00 +21°C° 0.7 mm 5 mps 748 mmHg 85%
    20:00 +20°C° 0.7 mm 4 mps 749 mmHg 88%
    21:00 +19°C° 0.4 mm 5 mps 749 mmHg 88%
    22:00 +19°C° 0.4 mm 5 mps 749 mmHg 89%
    23:00 +17°C° 0.4 mm 6 mps 749 mmHg 89%
    Show more